Hourly Data Report for October 06, 2017

All times are specified in Local Standard Time (LST). Add 1 hour to adjust for Daylight Saving Time where and when it is observed.

TUKTOYAKTUK
NORTHWEST TERRITORIES

69°26'00.000" N
133°01'00.000" W
4.60 m
2203914
71985
ZUB

Download Data

Hourly Data (October 2017)
Hourly Data Report for October 6, 2017
Temp Definition
°C
Dew Point Temp Definition
°C
Rel Hum Definition
%
Wind Dir Definition
10's deg

Wind Spd Definition
km/h
Visibility Definition
km
Stn Press Definition
kPa
Hmdx Definition


Wind Chill Definition


Weather Definition


TIME
00:00 1.8 1.0 95 LegendMM LegendMM   99.04     LegendNANA
01:00 1.6 1.0 96 LegendMM LegendMM   99.06     LegendNANA
02:00 1.5 0.9 96 LegendMM LegendMM   99.06     LegendNANA
03:00 1.2 0.6 96 LegendMM LegendMM   99.07     LegendNANA
04:00 1.3 0.8 96 LegendMM LegendMM   99.08     LegendNANA
05:00 1.2 0.7 96 LegendMM LegendMM   99.07     LegendNANA
06:00 0.6 0.1 97 LegendMM LegendMM   99.09     LegendNANA
07:00 0.3 -0.2 97 LegendMM LegendMM   99.13     LegendNANA
08:00 0.6 0.1 97 LegendMM LegendMM   99.18     LegendNANA
09:00 0.6 0.1 97 LegendMM LegendMM   99.21     LegendNANA
10:00 0.5 0.0 97 LegendMM LegendMM   99.28     LegendNANA
11:00 1.7 1.2 96 LegendMM LegendMM   99.31     LegendNANA
12:00 2.4 1.8 96 LegendMM LegendMM   99.36     LegendNANA
13:00 2.9 1.2 89 LegendMM LegendMM   99.43     LegendNANA
14:00 3.6 0.9 83 LegendMM LegendMM   99.49     LegendNANA
15:00 3.5 1.3 85 LegendMM LegendMM   99.54     LegendNANA
16:00 2.4 0.9 90 LegendMM LegendMM   99.65     LegendNANA
17:00 1.7 0.7 94 LegendMM LegendMM   99.74     LegendNANA
18:00 1.6 0.8 95 LegendMM LegendMM   99.82     LegendNANA
19:00 1.5 0.8 95 LegendMM LegendMM   99.91     LegendNANA
20:00 1.3 0.6 95 LegendMM LegendMM   99.99     LegendNANA
21:00 1.2 0.5 95 LegendMM LegendMM   100.05     LegendNANA
22:00 1.1 0.5 96 LegendMM LegendMM   100.16     LegendNANA
23:00 1.0 0.3 96 LegendMM LegendMM   100.22     LegendNANA

Notes on Data Quality.

Legend

  • E = Estimated
  • M = Missing
  • NA = Not Available
  • ‡ = Partner data that is not subject to review by the National Climate Archives
Date modified: